Other Surface Observations
Issued by NWS

Home | Current Version | Previous Version | Text Only | Print | Product List | Glossary On
Versions: 1 2 3 4 5 6 7 8 9 10 11 12 13 14 15 16 17 18 19 20 21 22 23 24 25 26 27 28 29 30 31 32 33 34 35 36 37 38 39 40 41 42 43 44 45 46 47 48 49 50
988
SXUS52 KTAE 290518
OSOTAE
OSOTAE
North Florida/South Alabama/Southwest Georgia Weather Roundup
National Weather Service Tallahassee Florida
100 AM EDT THU SEP 29 2016

Note: "fair" indicates few or no clouds below 12,000 feet with no
significant weather and/or obstructions to visibility.

!FLZ017-115-028-034-025-290600
...North Florida...

CITY           SKY/WX    TMP DP  RH WIND       PRES   REMARKS
TALLAHASSEE    CLEAR     74  73  97 SE5       29.98R
APALACHICOLA   CLEAR     79  77  94 W5        29.98S
PERRY          MOCLDY    73  72  95 CALM      30.00R
CROSS CITY     CLEAR     72  72 100 CALM      30.00S
JACKSONVILLE   PTCLDY    73  72  96 SW6       29.99S
$$

!FLZ112-006-005-002-011-290600
...Florida Panhandle...

CITY           SKY/WX    TMP DP  RH WIND       PRES   REMARKS
MARIANNA       CLEAR     75  74  96 CALM      29.96S
BONIFAY        FAIR      72  70  93 CALM      29.98S
PANAMA CITY NW FAIR      75  72  90 CALM      29.97R
TYNDALL AFB    CLEAR     82  73  73 W9        29.97S
TYND DRONE APT FAIR      82  74  75 W6        29.97F
DE FUNIAK SPR  FAIR      73  71  91 W3        29.99S
EGLIN AFB      CLEAR     76  71  82 SW1       29.97S
DESTIN         CLEAR     83  73  72 CALM      29.97S
HURLBURT       CLEAR     78  71  77 NW6       29.96S
CRESTVIEW      CLEAR     75  70  84 SW3       29.99S
PENSACOLA      CLEAR     78  69  73 W6        29.98S
$$

!ALZ063-066-290600
...South Alabama...

CITY           SKY/WX    TMP DP  RH WIND       PRES   REMARKS
DOTHAN         CLEAR     74  73  97 SW5       30.01R
OZARK CAIRNS   CLEAR     71  71  99 SW6       29.97S
FT RUCKER HELI CLEAR     72  69  90 CALM      29.96S
RUCKER HELI 3  NOT AVBL
RUCKER HELI 2  NOT AVBL
FLORALA APT    CLEAR     73  69  87 CALM      29.99S
ANDALUSIA      CLEAR     73  67  81 CALM      29.97S
TROY           CLEAR     66  66 100 CALM      29.98S
EUFALA         NOT AVBL
MOBILE         CLEAR     71  68  90 W5        30.00S
$$

!GAZ120>161-290600
...Southwest and South Central Georgia...

CITY           SKY/WX    TMP DP  RH WIND       PRES   REMARKS
THOMASVILLE    FAIR      73  73 100 SW5       29.99S
BAINBRIDGE     CLEAR     77  73  88 CALM      29.97S
MOODY AFB      CLEAR     77  71  83 SW6       29.96F
VALDOSTA       CLEAR     72  72 100 CALM      29.98S
MOULTRIE       CLEAR     73  70  88 SW3       29.99S
BLAKELY        CLEAR     73  70  88 CALM      29.97S
ALBANY         CLEAR     75  73  93 SW5       29.98S
TIFTON         MOCLDY    74  73  95 S6        29.98S
FITZGERALD     FAIR      78  76  91 S5        29.99S
CORDELE        FAIR      78  73  83 SW5       29.97S
AMERICUS       FAIR      72  64  78 SW3       29.98S
HOMERVILLE     FAIR      73  73 100 S3        29.98F
$$

!GMZ750-755-770-775-290600
...Coastal and Buoy Obs...

STATION/POSITION TIME  TEMP    WIND        PRES    VSBY  WAVE
                       AIR SEA DIR/SP/G                  HT/PER
                 (UTC) (F)     (DEG/KT/KT) (MB)    (MI)  (FT/S)
KEATON BEACH     0500   83     240/ 11/ 12 1015.0F
CEDAR KEY        0500   82     230/  8/ 11 1016.3F
C TOWER          0500   82     270/  9/ 10 1016.0F
APALACHICOLA BUO 0450   84 85  250/  8/ 12 1016.0S         1/ 4
PANAMA CITY BUOY 0450   83 85              1016.0F         2/ 5
MOBILE BUOY      0500   83 85  240/  8/ 10 1015.5F
ORANGE BCH AL BU 0450   85 86  280/ 12/ 16 1015.1F         2/ 3
$$




USA.gov is the U.S. government's official web portal to all federal, state and local government web resources and services.